Miscellaneous Local Product
Issued by NWS Hastings, NE

Home | Current Version | Previous Version | Text Only | Print | Product List | Glossary On
Versions: 1 2 3 4 5 6 7 8 9 10 11 12 13 14 15 16 17 18 19 20 21 22 23 24 25 26 27 28 29 30 31 32 33 34 35 36 37 38 39 40 41 42 43 44 45 46 47 48 49 50
000
AXUS43 KGID 022202
MISGRI

GID CWA HOURLY WEATHER ROUNDUP
NATIONAL WEATHER SERVICE HASTINGS NE
500 PM CDT WED SEP 02 2015

NOTE: "FAIR" INDICATES FEW OR NO CLOUDS BELOW 12,000 FEET WITH NO
SIGNIFICANT WEATHER AND/OR OBSTRUCTIONS TO VISIBILITY.

...SOUTH CENTRAL NEBRASKA...

CITY           SKY/WX    TMP DP  RH WIND       PRES   REMARKS
GRAND ISLAND   MOSUNNY   95  62  33 S13       29.83F HX  96
HASTINGS       MOSUNNY   94  63  35 S10       29.84F HX  95
KEARNEY        MOSUNNY   93  63  36 S15       29.84S HX  94
ORD            SUNNY     95  62  33 S13G18    29.81S HX  96
YORK           SUNNY     91  68  46 S14       29.84F HX  95
AURORA         SUNNY     92  65  40 S14       29.83F HX  93
LEXINGTON      MOSUNNY   93  62  34 SE12      29.84F HX  93
HOLDREGE       MOSUNNY   93  58  31 SE9       29.84F HX  92
HEBRON         SUNNY     94  58  29 S13G22    29.83F HX  93

...NEBRASKA PANHANDLE...

CITY           SKY/WX    TMP DP  RH WIND       PRES   REMARKS
CHADRON        SUNNY     98  43  15 S5        29.81F HX  94
ALLIANCE       SUNNY     95  42  16 W12       29.89F HX  91
SCOTTSBLUFF    SUNNY     94  39  14 SW5       29.89F HX  90
SIDNEY         MOSUNNY   91  43  18 CALM      29.94F

...WESTERN AND NORTH CENTRAL NEBRASKA...

CITY           SKY/WX    TMP DP  RH WIND       PRES   REMARKS
VALENTINE      SUNNY     99  44  15 S10       29.78F HX  95
AINSWORTH      SUNNY    100  43  14 SW8       29.80F HX  95
ONEILL         SUNNY     95  65  36 S16G22    29.81F HX  97
BROKEN BOW     MOSUNNY   95  56  26 S14       29.84F HX  93
IMPERIAL       MOSUNNY   94  52  24 SE7       29.87F HX  91
NORTH PLATTE   SUNNY     95  55  26 SE7       29.84F HX  93
MCCOOK         SUNNY     99  55  23 SE8       29.83F HX  97

...EASTERN NEBRASKA...

CITY           SKY/WX    TMP DP  RH WIND       PRES   REMARKS
NORFOLK        SUNNY     89  70  53 S17       29.82F HX  94
SO SIOUX CITY  SUNNY     87  68  52 S14       29.82F HX  90
TEKAMAH        SUNNY     88  73  61 S12       29.83F HX  95
COLUMBUS       SUNNY     90  70  51 S7        29.82F HX  95
ALBION         SUNNY     88  69  52 S13       29.83F HX  92
OMAHA EPPLEY   MOSUNNY   90  70  51 S17       29.84F HX  95
OFFUTT AFB     SUNNY     90  71  53 S14       29.84F HX  96
MILLARD        SUNNY     89  73  58 S10G16    29.84F HX  97
LINCOLN        SUNNY     93  68  43 S17       29.83F HX  97
NEBRASKA CITY  SUNNY     90  60  36 S16G22    29.86F
BEATRICE       SUNNY     92  67  43 S14G21    29.85S HX  95
FALLS CITY     SUNNY     90  70  51 S18G26    29.87F HX  95

...NORTHERN KANSAS...

CITY           SKY/WX    TMP DP  RH WIND       PRES   REMARKS
GOODLAND       SUNNY     97  44  16 CALM      29.89F HX  93
HILL CITY      SUNNY    101  55  21 S9        29.81F HX  99
NORTON         CLEAR     95  48  20 SE12      29.81F HX  91
PHILLIPSBURG   SUNNY    102  55  21 SE12G22   29.81F HX 101
SMITH CENTER   SUNNY     97  57  26 S15G22    29.82F HX  95
HAYS           SUNNY    102  57  22 S20G30    29.80F HX 101
RUSSELL        SUNNY    100  57  23 S24G32    29.80F HX  99
CONCORDIA      SUNNY     94  63  35 S17G28    29.84F HX  95
SALINA         SUNNY     97  61  30 S22G35    29.84F HX  97
TOPEKA         SUNNY     90  66  45 S14G22    29.90F HX  92



USA.gov is the U.S. government's official web portal to all federal, state and local government web resources and services.